• In Czech Republic
  • List of Countries
  • For 7 days
  • Water Temperature
  • Satellite Maps
  • Weather Map
  • Weather Widgets
  • user-avatar
    Login

    Hourly Weather Diapaga

    Today, 20 August, Monday

    Time Temperature Precipitation Wind Pressure Humidity
    00:00 +26°C° 0 mm 2 mps 736 mmHg 80%
    01:00 +26°C° 0.2 mm 2 mps 736 mmHg 81%
    02:00 +26°C° 0.2 mm 2 mps 735 mmHg 83%
    03:00 +26°C° 0.2 mm 2 mps 735 mmHg 85%
    04:00 +25°C° 0.3 mm 3 mps 735 mmHg 86%
    05:00 +25°C° 0.3 mm 3 mps 736 mmHg 87%
    06:00 +25°C° 0.3 mm 3 mps 736 mmHg 88%
    07:00 +27°C° 0 mm 4 mps 736 mmHg 81%
    08:00 +29°C° 0 mm 4 mps 736 mmHg 74%
    09:00 +30°C° 0 mm 5 mps 737 mmHg 68%
    10:00 +33°C° 0 mm 5 mps 736 mmHg 62%
    11:00 +35°C° 0 mm 4 mps 736 mmHg 56%
    12:00 +36°C° 0 mm 4 mps 735 mmHg 49%
    13:00 +37°C° 0 mm 4 mps 735 mmHg 47%
    14:00 +37°C° 0 mm 3 mps 734 mmHg 45%
    15:00 +38°C° 0 mm 3 mps 733 mmHg 43%
    16:00 +36°C° 0 mm 2 mps 733 mmHg 48%
    17:00 +35°C° 0 mm 2 mps 733 mmHg 53%
    18:00 +32°C° 0 mm 2 mps 733 mmHg 58%
    19:00 +31°C° 0.1 mm 2 mps 734 mmHg 61%
    20:00 +31°C° 0.1 mm 2 mps 734 mmHg 63%
    21:00 +30°C° 0.1 mm 2 mps 735 mmHg 66%
    22:00 +29°C° 0.4 mm 3 mps 735 mmHg 70%
    23:00 +29°C° 0.4 mm 3 mps 735 mmHg 73%

    Tomorrow, 21 August, Tuesday

    Time Temperature Precipitation Wind Pressure Humidity
    00:00 +28°C° 0.4 mm 4 mps 735 mmHg 77%
    01:00 +28°C° 0.3 mm 4 mps 735 mmHg 80%
    02:00 +27°C° 0.3 mm 4 mps 734 mmHg 83%
    03:00 +27°C° 0.3 mm 4 mps 734 mmHg 85%
    04:00 +27°C° 0.2 mm 4 mps 735 mmHg 86%
    05:00 +26°C° 0.2 mm 4 mps 735 mmHg 86%
    06:00 +26°C° 0.2 mm 4 mps 735 mmHg 87%
    07:00 +27°C° 0 mm 4 mps 736 mmHg 82%
    08:00 +28°C° 0 mm 4 mps 736 mmHg 78%
    09:00 +29°C° 0 mm 5 mps 737 mmHg 73%
    10:00 +30°C° 0.7 mm 5 mps 737 mmHg 69%
    11:00 +32°C° 0.7 mm 5 mps 736 mmHg 65%
    12:00 +33°C° 0.7 mm 5 mps 736 mmHg 62%
    13:00 +34°C° 0.5 mm 4 mps 736 mmHg 61%
    14:00 +34°C° 0.5 mm 4 mps 735 mmHg 60%
    15:00 +34°C° 0.5 mm 4 mps 734 mmHg 58%
    16:00 +33°C° 0.2 mm 4 mps 734 mmHg 63%
    17:00 +31°C° 0.2 mm 3 mps 734 mmHg 67%
    18:00 +29°C° 0.2 mm 3 mps 734 mmHg 72%
    19:00 +29°C° 0 mm 2 mps 734 mmHg 74%
    20:00 +28°C° 0 mm 2 mps 735 mmHg 76%
    21:00 +27°C° 0 mm 2 mps 736 mmHg 79%
    22:00 +27°C° 0 mm 2 mps 735 mmHg 79%
    23:00 +27°C° 0 mm 2 mps 735 mmHg 80%

    Day after tomorrow, 22 August, Wednesday

    Time Temperature Precipitation Wind Pressure Humidity
    00:00 +26°C° 0 mm 2 mps 735 mmHg 81%
    01:00 +26°C° 0 mm 3 mps 735 mmHg 82%
    02:00 +26°C° 0 mm 3 mps 735 mmHg 82%
    03:00 +26°C° 0 mm 3 mps 734 mmHg 83%
    04:00 +25°C° 0.4 mm 2 mps 735 mmHg 85%
    05:00 +25°C° 0.4 mm 2 mps 735 mmHg 88%
    06:00 +24°C° 0.4 mm 2 mps 736 mmHg 91%
    07:00 +26°C° 0.1 mm 2 mps 736 mmHg 84%
    08:00 +28°C° 0.1 mm 2 mps 737 mmHg 77%
    09:00 +29°C° 0.1 mm 3 mps 738 mmHg 70%
    10:00 +31°C° 0 mm 3 mps 737 mmHg 63%
    11:00 +34°C° 0 mm 3 mps 737 mmHg 56%
    12:00 +35°C° 0 mm 3 mps 736 mmHg 49%
    13:00 +36°C° 0 mm 2 mps 735 mmHg 47%
    14:00 +36°C° 0 mm 2 mps 735 mmHg 46%
    15:00 +37°C° 0 mm 2 mps 734 mmHg 44%
    16:00 +35°C° 0 mm 2 mps 734 mmHg 49%
    17:00 +34°C° 0 mm 2 mps 734 mmHg 53%
    18:00 +32°C° 0 mm 2 mps 734 mmHg 58%
    19:00 +31°C° 0 mm 2 mps 734 mmHg 61%
    20:00 +30°C° 0 mm 2 mps 735 mmHg 63%
    21:00 +30°C° 0 mm 2 mps 735 mmHg 66%
    22:00 +29°C° 0 mm 2 mps 735 mmHg 69%
    23:00 +29°C° 0 mm 2 mps 735 mmHg 72%

    23 August, Thursday

    Time Temperature Precipitation Wind Pressure Humidity
    00:00 +28°C° 0 mm 3 mps 735 mmHg 74%
    01:00 +28°C° 0.1 mm 3 mps 735 mmHg 76%
    02:00 +27°C° 0.1 mm 3 mps 734 mmHg 78%
    03:00 +27°C° 0.1 mm 3 mps 734 mmHg 80%
    04:00 +27°C° 0.4 mm 3 mps 734 mmHg 82%
    05:00 +26°C° 0.4 mm 4 mps 735 mmHg 84%
    06:00 +26°C° 0.4 mm 4 mps 735 mmHg 86%
    07:00 +27°C° 0 mm 4 mps 735 mmHg 83%
    08:00 +28°C° 0 mm 5 mps 736 mmHg 79%
    09:00 +29°C° 0 mm 5 mps 736 mmHg 75%
    10:00 +29°C° 2.1 mm 5 mps 736 mmHg 75%
    11:00 +30°C° 2.1 mm 4 mps 735 mmHg 75%
    12:00 +30°C° 2.1 mm 4 mps 735 mmHg 74%
    13:00 +32°C° 0.5 mm 5 mps 734 mmHg 71%
    14:00 +32°C° 0.5 mm 5 mps 733 mmHg 68%
    15:00 +33°C° 0.5 mm 5 mps 732 mmHg 64%
    16:00 +32°C° 0 mm 5 mps 733 mmHg 68%
    17:00 +30°C° 0 mm 4 mps 733 mmHg 71%
    18:00 +29°C° 0 mm 3 mps 733 mmHg 75%
    19:00 +28°C° 5.8 mm 4 mps 734 mmHg 79%
    20:00 +27°C° 5.8 mm 4 mps 734 mmHg 84%
    21:00 +26°C° 5.8 mm 5 mps 735 mmHg 89%
    22:00 +26°C° 9.2 mm 4 mps 735 mmHg 90%
    23:00 +25°C° 9.2 mm 4 mps 735 mmHg 91%

    24 August, Friday

    Time Temperature Precipitation Wind Pressure Humidity
    00:00 +24°C° 9.2 mm 3 mps 734 mmHg 93%
    01:00 +24°C° 0.3 mm 3 mps 734 mmHg 93%
    02:00 +24°C° 0.3 mm 3 mps 734 mmHg 93%
    03:00 +24°C° 0.3 mm 3 mps 734 mmHg 94%
    04:00 +24°C° 0 mm 3 mps 734 mmHg 94%
    05:00 +24°C° 0 mm 3 mps 734 mmHg 94%
    06:00 +24°C° 0 mm 3 mps 734 mmHg 94%
    07:00 +25°C° 0 mm 3 mps 734 mmHg 90%
    08:00 +26°C° 0 mm 4 mps 735 mmHg 85%
    09:00 +28°C° 0 mm 4 mps 735 mmHg 81%
    10:00 +29°C° 0.4 mm 4 mps 735 mmHg 77%
    11:00 +30°C° 0.4 mm 4 mps 735 mmHg 73%
    12:00 +31°C° 0.4 mm 3 mps 735 mmHg 69%
    13:00 +30°C° 1.3 mm 3 mps 734 mmHg 72%
    14:00 +30°C° 1.3 mm 3 mps 734 mmHg 76%
    15:00 +29°C° 1.3 mm 3 mps 733 mmHg 79%
    16:00 +28°C° 0.9 mm 2 mps 733 mmHg 82%
    17:00 +28°C° 0.9 mm 2 mps 733 mmHg 86%
    18:00 +27°C° 0.9 mm 1 mps 734 mmHg 89%
    19:00 +27°C° 1 mm 2 mps 734 mmHg 90%
    20:00 +26°C° 1 mm 2 mps 735 mmHg 92%
    21:00 +26°C° 1 mm 2 mps 735 mmHg 93%
    22:00 +25°C° 0.1 mm 2 mps 735 mmHg 94%
    23:00 +25°C° 0.1 mm 2 mps 735 mmHg 94%

    25 August, Saturday

    Time Temperature Precipitation Wind Pressure Humidity
    00:00 +25°C° 0.1 mm 2 mps 735 mmHg 95%
    01:00 +25°C° 0 mm 2 mps 735 mmHg 96%
    02:00 +24°C° 0 mm 2 mps 735 mmHg 96%
    03:00 +24°C° 0 mm 2 mps 735 mmHg 96%
    04:00 +24°C° 0.2 mm 2 mps 735 mmHg 96%
    05:00 +24°C° 0.2 mm 3 mps 736 mmHg 96%
    06:00 +24°C° 0.2 mm 3 mps 736 mmHg 96%
    07:00 +25°C° 0 mm 3 mps 737 mmHg 92%
    08:00 +26°C° 0 mm 4 mps 737 mmHg 87%
    09:00 +27°C° 0 mm 4 mps 737 mmHg 83%
    10:00 +28°C° 0.1 mm 4 mps 737 mmHg 78%
    11:00 +30°C° 0.1 mm 4 mps 736 mmHg 72%
    12:00 +32°C° 0.1 mm 4 mps 736 mmHg 66%
    13:00 +32°C° 1.3 mm 4 mps 735 mmHg 69%
    14:00 +30°C° 1.3 mm 3 mps 735 mmHg 73%
    15:00 +30°C° 1.3 mm 3 mps 734 mmHg 77%
    16:00 +29°C° 1.5 mm 3 mps 734 mmHg 81%
    17:00 +27°C° 1.5 mm 2 mps 734 mmHg 86%
    18:00 +26°C° 1.5 mm 2 mps 735 mmHg 91%
    19:00 +26°C° 0.1 mm 2 mps 735 mmHg 92%
    20:00 +25°C° 0.1 mm 2 mps 736 mmHg 93%
    21:00 +25°C° 0.1 mm 2 mps 736 mmHg 95%
    22:00 +25°C° 0.3 mm 2 mps 736 mmHg 95%
    23:00 +25°C° 0.3 mm 2 mps 736 mmHg 95%
    Show more